Time,TemperatureF,DewpointF,PressureIn,WindDirection,WindDirectionDegrees,WindSpeedMPH,WindSpeedGustMPH,Humidity,HourlyPrecipIn,Conditions,Clouds,dailyrainin,SoftwareType,DateUTC
2013-03-23 00:00:00,25.0,19.4,30.28,WNW,299,0.0,0.0,79,0.00,,---,0.00,VWS V13.00,2013-03-23 07:00:00,
2013-03-23 00:05:00,25.0,19.4,30.28,WNW,300,0.0,0.0,79,0.00,,---,0.00,VWS V13.00,2013-03-23 07:05:00,
2013-03-23 00:10:00,25.0,19.4,30.28,WNW,299,0.0,0.0,79,0.00,,---,0.00,VWS V13.00,2013-03-23 07:10:00,
2013-03-23 00:15:00,24.9,19.3,30.28,WNW,299,2.0,2.0,79,0.00,,---,0.00,VWS V13.00,2013-03-23 07:15:00,
2013-03-23 00:20:00,24.8,19.2,30.29,WNW,300,0.0,2.0,79,0.00,,---,0.00,VWS V13.00,2013-03-23 07:20:00,
2013-03-23 00:25:00,24.6,19.0,30.29,WNW,300,1.0,2.0,79,0.00,,---,0.00,VWS V13.00,2013-03-23 07:25:00,
2013-03-23 00:30:00,24.4,18.8,30.29,WNW,300,0.0,1.0,79,0.00,,---,0.00,VWS V13.00,2013-03-23 07:30:00,
2013-03-23 00:34:00,24.3,18.7,30.29,WNW,299,0.0,2.0,79,0.00,,---,0.00,VWS V13.00,2013-03-23 07:34:00,
2013-03-23 00:39:00,24.1,18.5,30.29,WNW,299,1.0,2.0,79,0.00,,---,0.00,VWS V13.00,2013-03-23 07:39:00,
2013-03-23 00:44:00,23.9,18.6,30.29,WNW,299,1.0,2.0,80,0.00,,---,0.00,VWS V13.00,2013-03-23 07:44:00,
2013-03-23 00:49:00,23.7,18.5,30.29,WNW,300,0.0,2.0,80,0.00,,---,0.00,VWS V13.00,2013-03-23 07:49:00,
2013-03-23 00:54:00,23.5,18.5,30.29,WNW,300,0.0,2.0,81,0.00,,---,0.00,VWS V13.00,2013-03-23 07:54:00,
2013-03-23 00:59:00,23.5,18.8,30.29,WNW,300,1.0,1.0,82,0.00,,---,0.00,VWS V13.00,2013-03-23 07:59:00,
2013-03-23 01:04:00,23.3,18.6,30.29,WNW,300,1.0,2.0,82,0.00,,---,0.00,VWS V13.00,2013-03-23 08:04:00,
2013-03-23 01:09:00,23.2,18.5,30.30,WNW,299,1.0,2.0,82,0.00,,---,0.00,VWS V13.00,2013-03-23 08:09:00,
2013-03-23 01:14:00,23.0,18.3,30.30,WNW,299,0.0,2.0,82,0.00,,---,0.00,VWS V13.00,2013-03-23 08:14:00,
2013-03-23 01:19:00,22.9,18.2,30.30,WNW,300,1.0,2.0,82,0.00,,---,0.00,VWS V13.00,2013-03-23 08:19:00,
2013-03-23 01:24:00,22.8,18.1,30.30,WNW,300,1.0,2.0,82,0.00,,---,0.00,VWS V13.00,2013-03-23 08:24:00,
2013-03-23 01:29:00,22.6,18.2,30.30,WNW,300,0.0,2.0,83,0.00,,---,0.00,VWS V13.00,2013-03-23 08:29:00,
2013-03-23 01:34:00,22.6,18.2,30.30,WNW,300,0.0,2.0,83,0.00,,---,0.00,VWS V13.00,2013-03-23 08:34:00,
2013-03-23 01:39:00,22.6,18.2,30.31,WNW,300,0.0,2.0,83,0.00,,---,0.00,VWS V13.00,2013-03-23 08:39:00,
2013-03-23 01:44:00,22.6,18.5,30.31,WNW,300,0.0,2.0,84,0.00,,---,0.00,VWS V13.00,2013-03-23 08:44:00,
2013-03-23 01:49:00,22.6,18.2,30.31,WNW,300,0.0,2.0,83,0.00,,---,0.00,VWS V13.00,2013-03-23 08:49:00,
2013-03-23 01:54:00,22.6,18.2,30.31,WNW,300,0.0,2.0,83,0.00,,---,0.00,VWS V13.00,2013-03-23 08:54:00,
2013-03-23 01:59:00,22.5,18.1,30.31,WNW,299,0.0,1.0,83,0.00,,---,0.00,VWS V13.00,2013-03-23 08:59:00,
2013-03-23 02:04:00,22.3,17.9,30.31,WNW,299,0.0,1.0,83,0.00,,---,0.00,VWS V13.00,2013-03-23 09:04:00,
2013-03-23 02:09:00,22.2,17.5,30.31,WNW,300,0.0,1.0,82,0.00,,---,0.00,VWS V13.00,2013-03-23 09:09:00,
2013-03-23 02:14:00,22.0,17.4,30.32,WNW,299,0.0,1.0,82,0.00,,---,0.00,VWS V13.00,2013-03-23 09:14:00,
2013-03-23 02:19:00,21.9,17.3,30.32,WNW,300,0.0,1.0,82,0.00,,---,0.00,VWS V13.00,2013-03-23 09:19:00,
2013-03-23 02:24:00,21.7,17.3,30.32,WNW,299,0.0,1.0,83,0.00,,---,0.00,VWS V13.00,2013-03-23 09:24:00,
2013-03-23 02:29:00,21.6,17.2,30.32,WNW,299,1.0,2.0,83,0.00,,---,0.00,VWS V13.00,2013-03-23 09:29:00,
2013-03-23 02:34:00,21.6,17.2,30.32,WNW,300,0.0,2.0,83,0.00,,---,0.00,VWS V13.00,2013-03-23 09:34:00,
2013-03-23 02:39:00,21.5,17.4,30.32,WNW,300,1.0,2.0,84,0.00,,---,0.00,VWS V13.00,2013-03-23 09:39:00,
2013-03-23 02:44:00,21.4,17.3,30.32,WNW,299,0.0,2.0,84,0.00,,---,0.00,VWS V13.00,2013-03-23 09:44:00,
2013-03-23 02:49:00,21.4,17.3,30.33,WNW,299,0.0,2.0,84,0.00,,---,0.00,VWS V13.00,2013-03-23 09:49:00,
2013-03-23 02:54:00,21.3,17.2,30.33,WNW,300,1.0,2.0,84,0.00,,---,0.00,VWS V13.00,2013-03-23 09:54:00,
2013-03-23 02:59:00,21.1,17.0,30.33,WNW,300,1.0,2.0,84,0.00,,---,0.00,VWS V13.00,2013-03-23 09:59:00,
2013-03-23 03:04:00,20.9,16.8,30.33,WNW,299,1.0,2.0,84,0.00,,---,0.00,VWS V13.00,2013-03-23 10:04:00,
2013-03-23 03:09:00,20.8,16.7,30.33,WNW,300,2.0,2.0,84,0.00,,---,0.00,VWS V13.00,2013-03-23 10:09:00,
2013-03-23 03:14:00,20.7,16.6,30.33,WNW,300,1.0,2.0,84,0.00,,---,0.00,VWS V13.00,2013-03-23 10:14:00,
2013-03-23 03:19:00,20.5,16.4,30.33,WNW,299,1.0,2.0,84,0.00,,---,0.00,VWS V13.00,2013-03-23 10:19:00,
2013-03-23 03:24:00,20.3,16.5,30.33,WNW,299,1.0,2.0,85,0.00,,---,0.00,VWS V13.00,2013-03-23 10:24:00,
2013-03-23 03:29:00,20.2,16.4,30.33,WNW,299,1.0,2.0,85,0.00,,---,0.00,VWS V13.00,2013-03-23 10:29:00,
2013-03-23 03:34:00,20.1,16.3,30.34,WNW,300,2.0,2.0,85,0.00,,---,0.00,VWS V13.00,2013-03-23 10:34:00,
2013-03-23 03:39:00,20.0,16.2,30.34,WNW,300,2.0,2.0,85,0.00,,---,0.00,VWS V13.00,2013-03-23 10:39:00,
2013-03-23 03:44:00,19.8,16.0,30.34,WNW,300,2.0,2.0,85,0.00,,---,0.00,VWS V13.00,2013-03-23 10:44:00,
2013-03-23 03:49:00,19.7,15.9,30.34,WNW,300,0.0,3.0,85,0.00,,---,0.00,VWS V13.00,2013-03-23 10:49:00,
2013-03-23 03:54:00,19.7,16.2,30.34,WNW,300,2.0,3.0,86,0.00,,---,0.00,VWS V13.00,2013-03-23 10:54:00,
2013-03-23 03:59:00,19.7,16.2,30.34,WNW,300,1.0,2.0,86,0.00,,---,0.00,VWS V13.00,2013-03-23 10:59:00,
2013-03-23 04:04:00,19.7,16.2,30.34,WNW,300,1.0,2.0,86,0.00,,---,0.00,VWS V13.00,2013-03-23 11:04:00,
2013-03-23 04:09:00,19.7,16.2,30.35,WNW,300,1.0,2.0,86,0.00,,---,0.00,VWS V13.00,2013-03-23 11:09:00,
2013-03-23 04:14:00,19.7,16.2,30.35,WNW,299,1.0,2.0,86,0.00,,---,0.00,VWS V13.00,2013-03-23 11:14:00,
2013-03-23 04:19:00,19.7,16.2,30.35,WNW,300,0.0,2.0,86,0.00,,---,0.00,VWS V13.00,2013-03-23 11:19:00,
2013-03-23 04:24:00,19.6,16.1,30.35,WNW,300,0.0,2.0,86,0.00,,---,0.00,VWS V13.00,2013-03-23 11:24:00,
2013-03-23 04:29:00,19.5,16.3,30.35,WNW,299,1.0,2.0,87,0.00,,---,0.00,VWS V13.00,2013-03-23 11:29:00,
2013-03-23 04:34:00,19.4,15.9,30.35,WNW,299,1.0,2.0,86,0.00,,---,0.00,VWS V13.00,2013-03-23 11:34:00,
2013-03-23 04:39:00,19.3,16.1,30.35,WNW,299,0.0,2.0,87,0.00,,---,0.00,VWS V13.00,2013-03-23 11:39:00,
2013-03-23 04:44:00,19.2,16.0,30.35,WNW,300,1.0,2.0,87,0.00,,---,0.00,VWS V13.00,2013-03-23 11:44:00,
2013-03-23 04:49:00,19.1,15.6,30.35,WNW,300,0.0,2.0,86,0.00,,---,0.00,VWS V13.00,2013-03-23 11:49:00,
2013-03-23 04:54:00,19.0,15.8,30.36,WNW,299,0.0,2.0,87,0.00,,---,0.00,VWS V13.00,2013-03-23 11:54:00,
2013-03-23 04:59:00,19.0,15.8,30.36,WNW,300,0.0,1.0,87,0.00,,---,0.00,VWS V13.00,2013-03-23 11:59:00,
2013-03-23 05:04:00,18.9,15.7,30.36,WNW,300,1.0,1.0,87,0.00,,---,0.00,VWS V13.00,2013-03-23 12:04:00,
2013-03-23 05:09:00,18.8,15.6,30.36,WNW,300,1.0,2.0,87,0.00,,---,0.00,VWS V13.00,2013-03-23 12:09:00,
2013-03-23 05:14:00,18.8,15.6,30.36,WNW,300,1.0,2.0,87,0.00,,---,0.00,VWS V13.00,2013-03-23 12:14:00,
2013-03-23 05:19:00,18.7,15.5,30.36,WNW,300,2.0,2.0,87,0.00,,---,0.00,VWS V13.00,2013-03-23 12:19:00,
2013-03-23 05:24:00,18.7,15.5,30.36,WNW,300,1.0,2.0,87,0.00,,---,0.00,VWS V13.00,2013-03-23 12:24:00,
2013-03-23 05:29:00,18.8,15.8,30.36,WNW,299,0.0,1.0,88,0.00,,---,0.00,VWS V13.00,2013-03-23 12:29:00,
2013-03-23 05:34:00,18.9,15.9,30.36,WNW,299,0.0,1.0,88,0.00,,---,0.00,VWS V13.00,2013-03-23 12:34:00,
2013-03-23 05:39:00,18.9,15.9,30.36,WNW,300,0.0,1.0,88,0.00,,---,0.00,VWS V13.00,2013-03-23 12:39:00,
2013-03-23 05:44:00,18.8,15.8,30.36,WNW,300,0.0,2.0,88,0.00,,---,0.00,VWS V13.00,2013-03-23 12:44:00,
2013-03-23 05:49:00,18.7,15.7,30.37,WNW,300,2.0,2.0,88,0.00,,---,0.00,VWS V13.00,2013-03-23 12:49:00,
2013-03-23 05:54:00,18.5,15.6,30.37,WNW,300,2.0,3.0,88,0.00,,---,0.00,VWS V13.00,2013-03-23 12:54:00,
2013-03-23 05:59:00,18.4,15.4,30.38,WNW,300,1.0,3.0,88,0.00,,---,0.00,VWS V13.00,2013-03-23 12:59:00,
2013-03-23 06:04:00,18.4,15.4,30.38,WNW,300,1.0,3.0,88,0.00,,---,0.00,VWS V13.00,2013-03-23 13:04:00,
2013-03-23 06:09:00,18.3,15.4,30.39,WNW,299,0.0,3.0,88,0.00,,---,0.00,VWS V13.00,2013-03-23 13:09:00,
2013-03-23 06:14:00,18.3,15.4,30.39,WNW,299,0.0,3.0,88,0.00,,---,0.00,VWS V13.00,2013-03-23 13:14:00,
2013-03-23 06:19:00,18.4,15.4,30.39,WNW,300,1.0,3.0,88,0.00,,---,0.00,VWS V13.00,2013-03-23 13:19:00,
2013-03-23 06:24:00,18.4,15.4,30.39,WNW,300,0.0,3.0,88,0.00,,---,0.00,VWS V13.00,2013-03-23 13:24:00,
2013-03-23 06:29:00,18.4,15.4,30.39,WNW,300,2.0,2.0,88,0.00,,---,0.00,VWS V13.00,2013-03-23 13:29:00,
2013-03-23 06:34:00,18.2,15.2,30.39,WNW,300,1.0,2.0,88,0.00,,---,0.00,VWS V13.00,2013-03-23 13:34:00,
2013-03-23 06:39:00,18.2,15.2,30.39,WNW,300,1.0,2.0,88,0.00,,---,0.00,VWS V13.00,2013-03-23 13:39:00,
2013-03-23 06:44:00,18.1,15.1,30.39,WNW,299,1.0,2.0,88,0.00,,---,0.00,VWS V13.00,2013-03-23 13:44:00,
2013-03-23 06:49:00,18.0,15.1,30.39,WNW,299,0.0,2.0,88,0.00,,---,0.00,VWS V13.00,2013-03-23 13:49:00,
2013-03-23 06:54:00,18.0,15.1,30.39,WNW,300,0.0,2.0,88,0.00,,---,0.00,VWS V13.00,2013-03-23 13:54:00,
2013-03-23 06:59:00,18.0,15.1,30.40,WNW,300,0.0,0.0,88,0.00,,---,0.00,VWS V13.00,2013-03-23 13:59:00,
2013-03-23 07:04:00,17.9,14.9,30.40,WNW,300,1.0,2.0,88,0.00,,---,0.00,VWS V13.00,2013-03-23 14:04:00,
2013-03-23 07:09:00,17.9,14.9,30.40,WNW,300,0.0,2.0,88,0.00,,---,0.00,VWS V13.00,2013-03-23 14:09:00,
2013-03-23 07:14:00,17.9,14.9,30.40,WNW,300,1.0,2.0,88,0.00,,---,0.00,VWS V13.00,2013-03-23 14:14:00,
2013-03-23 07:19:00,17.9,14.9,30.40,WNW,300,0.0,2.0,88,0.00,,---,0.00,VWS V13.00,2013-03-23 14:19:00,
2013-03-23 07:24:00,17.9,15.2,30.40,WNW,299,0.0,2.0,89,0.00,,---,0.00,VWS V13.00,2013-03-23 14:24:00,
2013-03-23 07:29:00,17.9,15.2,30.40,WNW,300,0.0,0.0,89,0.00,,---,0.00,VWS V13.00,2013-03-23 14:29:00,
2013-03-23 07:34:00,18.0,15.3,30.40,WNW,299,0.0,0.0,89,0.00,,---,0.00,VWS V13.00,2013-03-23 14:34:00,
2013-03-23 07:39:00,18.1,15.4,30.40,WNW,300,0.0,0.0,89,0.00,,---,0.00,VWS V13.00,2013-03-23 14:39:00,
2013-03-23 07:44:00,18.3,15.6,30.40,WNW,299,0.0,0.0,89,0.00,,---,0.00,VWS V13.00,2013-03-23 14:44:00,
2013-03-23 07:49:00,18.5,15.8,30.40,WNW,300,0.0,1.0,89,0.00,,---,0.00,VWS V13.00,2013-03-23 14:49:00,
2013-03-23 07:54:00,18.8,16.4,30.40,WNW,300,0.0,1.0,90,0.00,,---,0.00,VWS V13.00,2013-03-23 14:54:00,
2013-03-23 07:59:00,19.1,16.7,30.41,WNW,299,0.0,0.0,90,0.00,,---,0.00,VWS V13.00,2013-03-23 14:59:00,
2013-03-23 08:04:00,19.5,17.0,30.41,WNW,300,0.0,0.0,90,0.00,,---,0.00,VWS V13.00,2013-03-23 15:04:00,
2013-03-23 08:09:00,19.7,17.2,30.40,WNW,300,0.0,0.0,90,0.00,,---,0.00,VWS V13.00,2013-03-23 15:09:00,
2013-03-23 08:14:00,20.2,17.7,30.41,WNW,300,0.0,0.0,90,0.00,,---,0.00,VWS V13.00,2013-03-23 15:14:00,
2013-03-23 08:20:00,20.6,18.4,30.41,WNW,300,0.0,0.0,91,0.00,,---,0.00,VWS V13.00,2013-03-23 15:20:00,
2013-03-23 08:25:00,21.0,18.8,30.41,WNW,299,1.0,1.0,91,0.00,,---,0.00,VWS V13.00,2013-03-23 15:25:00,
2013-03-23 08:30:00,21.5,19.3,30.40,WNW,300,0.0,1.0,91,0.00,,---,0.00,VWS V13.00,2013-03-23 15:30:00,
2013-03-23 08:35:00,22.1,19.9,30.40,WNW,300,2.0,2.0,91,0.00,,---,0.00,VWS V13.00,2013-03-23 15:35:00,
2013-03-23 08:40:00,22.6,20.4,30.40,WNW,299,3.0,3.0,91,0.00,,---,0.00,VWS V13.00,2013-03-23 15:40:00,
2013-03-23 08:45:00,23.2,21.2,30.41,WNW,299,0.0,3.0,92,0.00,,---,0.00,VWS V13.00,2013-03-23 15:45:00,
2013-03-23 08:50:00,23.7,21.7,30.40,WNW,300,0.0,3.0,92,0.00,,---,0.00,VWS V13.00,2013-03-23 15:50:00,
2013-03-23 08:55:00,24.9,22.9,30.40,WNW,300,0.0,3.0,92,0.00,,---,0.00,VWS V13.00,2013-03-23 15:55:00,
2013-03-23 09:00:00,25.6,23.3,30.41,WNW,300,0.0,0.0,91,0.00,,---,0.00,VWS V13.00,2013-03-23 16:00:00,
2013-03-23 09:05:00,25.7,23.2,30.41,WNW,300,0.0,1.0,90,0.00,,---,0.00,VWS V13.00,2013-03-23 16:05:00,
2013-03-23 09:10:00,26.0,23.5,30.41,WNW,300,0.0,2.0,90,0.00,,---,0.00,VWS V13.00,2013-03-23 16:10:00,
2013-03-23 09:15:00,26.9,24.4,30.40,WNW,299,0.0,2.0,90,0.00,,---,0.00,VWS V13.00,2013-03-23 16:15:00,
2013-03-23 09:20:00,27.4,24.6,30.40,WNW,299,0.0,2.0,89,0.00,,---,0.00,VWS V13.00,2013-03-23 16:20:00,
2013-03-23 09:25:00,28.1,25.3,30.40,WNW,299,0.0,2.0,89,0.00,,---,0.00,VWS V13.00,2013-03-23 16:25:00,
2013-03-23 09:30:00,28.7,25.6,30.40,WNW,300,0.0,1.0,88,0.00,,---,0.00,VWS V13.00,2013-03-23 16:30:00,
2013-03-23 09:35:00,29.2,25.8,30.40,South,182,2.0,3.0,87,0.00,,---,0.00,VWS V13.00,2013-03-23 16:35:00,
2013-03-23 09:40:00,29.7,25.8,30.40,SSE,168,0.0,4.0,85,0.00,,---,0.00,VWS V13.00,2013-03-23 16:40:00,
2013-03-23 09:45:00,29.9,25.7,30.40,South,169,2.0,4.0,84,0.00,,---,0.00,VWS V13.00,2013-03-23 16:45:00,
2013-03-23 09:50:00,30.5,26.0,30.40,SSE,168,2.0,4.0,83,0.00,,---,0.00,VWS V13.00,2013-03-23 16:50:00,
2013-03-23 09:55:00,31.0,25.9,30.39,SSE,168,2.0,4.0,81,0.00,,---,0.00,VWS V13.00,2013-03-23 16:55:00,
2013-03-23 10:00:00,31.5,26.0,30.40,SE,141,2.0,3.0,80,0.00,,---,0.00,VWS V13.00,2013-03-23 17:00:00,
2013-03-23 10:05:00,32.0,25.9,30.39,SE,134,2.0,3.0,78,0.00,,---,0.00,VWS V13.00,2013-03-23 17:05:00,
2013-03-23 10:10:00,32.5,25.8,30.40,SE,134,0.0,4.0,76,0.00,,---,0.00,VWS V13.00,2013-03-23 17:10:00,
2013-03-23 10:15:00,33.0,26.3,30.39,SE,138,3.0,4.0,76,0.00,,---,0.00,VWS V13.00,2013-03-23 17:15:00,
2013-03-23 10:20:00,33.5,26.4,30.39,SE,130,2.0,6.0,75,0.00,,---,0.00,VWS V13.00,2013-03-23 17:20:00,
2013-03-23 10:25:00,33.9,26.8,30.39,SSE,153,4.0,6.0,75,0.00,,---,0.00,VWS V13.00,2013-03-23 17:25:00,
2013-03-23 10:30:00,34.4,26.7,30.39,SE,127,3.0,3.0,73,0.00,,---,0.00,VWS V13.00,2013-03-23 17:30:00,
2013-03-23 10:35:00,34.5,26.8,30.39,South,172,0.0,4.0,73,0.00,,---,0.00,VWS V13.00,2013-03-23 17:35:00,
2013-03-23 10:40:00,35.3,27.2,30.39,ESE,122,4.0,7.0,72,0.00,,---,0.00,VWS V13.00,2013-03-23 17:40:00,
2013-03-23 10:45:00,35.6,26.5,30.38,ESE,121,2.0,7.0,69,0.00,,---,0.00,VWS V13.00,2013-03-23 17:45:00,
2013-03-23 10:50:00,35.7,26.5,30.38,ESE,107,3.0,7.0,69,0.00,,---,0.00,VWS V13.00,2013-03-23 17:50:00,
2013-03-23 10:55:00,36.1,27.3,30.38,SSE,163,0.0,7.0,70,0.00,,---,0.00,VWS V13.00,2013-03-23 17:55:00,
2013-03-23 11:00:00,35.9,26.0,30.39,South,172,1.0,2.0,67,0.00,,---,0.00,VWS V13.00,2013-03-23 18:00:00,
2013-03-23 11:05:00,35.6,26.1,30.38,South,172,1.0,2.0,68,0.00,,---,0.00,VWS V13.00,2013-03-23 18:05:00,
2013-03-23 11:10:00,36.2,26.7,30.38,SE,143,1.0,3.0,68,0.00,,---,0.00,VWS V13.00,2013-03-23 18:10:00,
2013-03-23 11:15:00,36.3,26.4,30.38,South,176,0.0,5.0,67,0.00,,---,0.00,VWS V13.00,2013-03-23 18:15:00,
2013-03-23 11:20:00,36.0,26.8,30.38,South,175,0.0,5.0,69,0.00,,---,0.00,VWS V13.00,2013-03-23 18:20:00,
2013-03-23 11:25:00,37.8,27.5,30.37,East,101,1.0,7.0,66,0.00,,---,0.00,VWS V13.00,2013-03-23 18:25:00,
2013-03-23 11:30:00,38.0,26.1,30.37,ENE,71,2.0,5.0,62,0.00,,---,0.00,VWS V13.00,2013-03-23 18:30:00,
2013-03-23 11:35:00,37.1,27.2,30.37,NNE,15,4.0,5.0,67,0.00,,---,0.00,VWS V13.00,2013-03-23 18:35:00,
2013-03-23 11:40:00,36.2,25.6,30.37,North,11,0.0,5.0,65,0.00,,---,0.00,VWS V13.00,2013-03-23 18:40:00,
2013-03-23 11:45:00,36.3,25.3,30.37,South,188,0.0,5.0,64,0.00,,---,0.00,VWS V13.00,2013-03-23 18:45:00,
2013-03-23 11:50:00,38.4,27.7,30.37,ESE,105,1.0,5.0,65,0.00,,---,0.00,VWS V13.00,2013-03-23 18:50:00,
2013-03-23 11:55:00,39.1,26.4,30.36,ESE,111,4.0,9.0,60,0.00,,---,0.00,VWS V13.00,2013-03-23 18:55:00,
2013-03-23 12:00:00,39.2,27.7,30.36,SE,125,2.0,2.0,63,0.00,,---,0.00,VWS V13.00,2013-03-23 19:00:00,
2013-03-23 12:05:00,39.0,27.1,30.36,ESE,108,1.0,6.0,62,0.00,,---,0.00,VWS V13.00,2013-03-23 19:05:00,
2013-03-23 12:10:00,39.8,26.2,30.36,ESE,122,4.0,9.0,58,0.00,,---,0.00,VWS V13.00,2013-03-23 19:10:00,
2013-03-23 12:15:00,40.2,26.2,30.36,SE,131,2.0,9.0,57,0.00,,---,0.00,VWS V13.00,2013-03-23 19:15:00,
2013-03-23 12:20:00,40.1,24.8,30.36,ESE,111,1.0,9.0,54,0.00,,---,0.00,VWS V13.00,2013-03-23 19:20:00,
2013-03-23 12:25:00,40.1,26.5,30.36,SE,145,2.0,9.0,58,0.00,,---,0.00,VWS V13.00,2013-03-23 19:25:00,
2013-03-23 12:30:00,39.9,25.5,30.36,East,95,2.0,4.0,56,0.00,,---,0.00,VWS V13.00,2013-03-23 19:30:00,
2013-03-23 12:35:00,40.0,26.0,30.35,East,90,2.0,6.0,57,0.00,,---,0.00,VWS V13.00,2013-03-23 19:35:00,
2013-03-23 12:40:00,40.0,25.6,30.35,ESE,110,3.0,6.0,56,0.00,,---,0.00,VWS V13.00,2013-03-23 19:40:00,
2013-03-23 12:45:00,40.6,25.3,30.35,ESE,109,0.0,6.0,54,0.00,,---,0.00,VWS V13.00,2013-03-23 19:45:00,
2013-03-23 12:50:00,40.7,25.8,30.35,East,96,4.0,6.0,55,0.00,,---,0.00,VWS V13.00,2013-03-23 19:50:00,
2013-03-23 12:55:00,40.5,26.0,30.35,East,92,3.0,6.0,56,0.00,,---,0.00,VWS V13.00,2013-03-23 19:55:00,
2013-03-23 13:00:00,41.6,25.3,30.34,East,100,3.0,3.0,52,0.00,,---,0.00,VWS V13.00,2013-03-23 20:00:00,
2013-03-23 13:05:00,41.8,25.0,30.34,ESE,104,6.0,13.0,51,0.00,,---,0.00,VWS V13.00,2013-03-23 20:05:00,
2013-03-23 13:10:00,40.9,25.1,30.34,ESE,107,2.0,13.0,53,0.00,,---,0.00,VWS V13.00,2013-03-23 20:10:00,
2013-03-23 13:15:00,40.8,25.0,30.34,SSE,152,4.0,13.0,53,0.00,,---,0.00,VWS V13.00,2013-03-23 20:15:00,
2013-03-23 13:20:00,40.4,24.2,30.34,SSE,148,0.0,13.0,52,0.00,,---,0.00,VWS V13.00,2013-03-23 20:20:00,
2013-03-23 13:25:00,40.0,24.3,30.34,SSE,148,0.0,13.0,53,0.00,,---,0.00,VWS V13.00,2013-03-23 20:25:00,
2013-03-23 13:30:00,39.6,23.4,30.34,ESE,111,0.0,3.0,52,0.00,,---,0.00,VWS V13.00,2013-03-23 20:30:00,
2013-03-23 13:35:00,39.2,23.1,30.34,East,101,2.0,4.0,52,0.00,,---,0.00,VWS V13.00,2013-03-23 20:35:00,
2013-03-23 13:40:00,40.5,25.2,30.34,SSE,157,3.0,5.0,54,0.00,,---,0.00,VWS V13.00,2013-03-23 20:40:00,
2013-03-23 13:45:00,41.4,24.2,30.33,SSE,157,0.0,5.0,50,0.00,,---,0.00,VWS V13.00,2013-03-23 20:45:00,
2013-03-23 13:50:00,40.8,24.1,30.33,SSE,157,1.0,5.0,51,0.00,,---,0.00,VWS V13.00,2013-03-23 20:50:00,
2013-03-23 13:55:00,43.1,28.5,30.33,NE,52,3.0,5.0,56,0.00,,---,0.00,VWS V13.00,2013-03-23 20:55:00,
2013-03-23 14:00:00,41.5,23.3,30.33,NW,321,0.0,0.0,48,0.00,,---,0.00,VWS V13.00,2013-03-23 21:00:00,
2013-03-23 14:05:00,43.1,26.2,30.33,NNW,340,3.0,3.0,51,0.00,,---,0.00,VWS V13.00,2013-03-23 21:05:00,
2013-03-23 14:10:00,42.4,22.6,30.33,ESE,106,1.0,5.0,45,0.00,,---,0.00,VWS V13.00,2013-03-23 21:10:00,
2013-03-23 14:15:00,41.8,22.5,30.33,ESE,111,3.0,6.0,46,0.00,,---,0.00,VWS V13.00,2013-03-23 21:15:00,
2013-03-23 14:20:00,41.1,21.9,30.33,ESE,107,0.0,6.0,46,0.00,,---,0.00,VWS V13.00,2013-03-23 21:20:00,
2013-03-23 14:25:00,40.5,21.9,30.33,ESE,107,0.0,6.0,47,0.00,,---,0.00,VWS V13.00,2013-03-23 21:25:00,
2013-03-23 14:30:00,40.2,21.1,30.33,NE,43,3.0,5.0,46,0.00,,---,0.00,VWS V13.00,2013-03-23 21:30:00,
2013-03-23 14:35:00,40.9,21.7,30.32,North,360,0.0,5.0,46,0.00,,---,0.00,VWS V13.00,2013-03-23 21:35:00,
2013-03-23 14:40:00,41.6,22.9,30.32,North,360,0.0,5.0,47,0.00,,---,0.00,VWS V13.00,2013-03-23 21:40:00,
2013-03-23 14:45:00,41.3,22.1,30.32,SSE,148,2.0,5.0,46,0.00,,---,0.00,VWS V13.00,2013-03-23 21:45:00,
2013-03-23 14:50:00,41.1,20.9,30.32,South,175,1.0,10.0,44,0.00,,---,0.00,VWS V13.00,2013-03-23 21:50:00,
2013-03-23 14:55:00,40.8,19.5,30.32,SE,129,4.0,10.0,42,0.00,,---,0.00,VWS V13.00,2013-03-23 21:55:00,
2013-03-23 15:00:00,40.7,20.5,30.33,SW,227,5.0,10.0,44,0.00,,---,0.00,VWS V13.00,2013-03-23 22:00:00,
2013-03-23 15:05:00,40.4,20.8,30.33,South,171,3.0,10.0,45,0.00,,---,0.00,VWS V13.00,2013-03-23 22:05:00,
2013-03-23 15:09:00,40.1,20.0,30.33,South,182,6.0,14.0,44,0.00,,---,0.00,VWS V13.00,2013-03-23 22:09:00,
2013-03-23 15:14:00,39.3,21.8,30.33,SSW,194,10.0,15.0,49,0.00,,---,0.00,VWS V13.00,2013-03-23 22:14:00,
2013-03-23 15:19:00,38.1,23.4,30.34,SSW,194,3.0,15.0,55,0.00,,---,0.00,VWS V13.00,2013-03-23 22:19:00,
2013-03-23 15:24:00,38.0,24.5,30.34,ESE,119,4.0,15.0,58,0.00,,---,0.00,VWS V13.00,2013-03-23 22:24:00,
2013-03-23 15:29:00,38.0,24.5,30.34,SSE,147,5.0,6.0,58,0.00,,---,0.00,VWS V13.00,2013-03-23 22:29:00,
2013-03-23 15:34:00,38.2,24.3,30.33,ESE,102,4.0,9.0,57,0.00,,---,0.00,VWS V13.00,2013-03-23 22:34:00,
2013-03-23 15:39:00,39.3,26.2,30.33,ESE,116,2.0,9.0,59,0.00,,---,0.00,VWS V13.00,2013-03-23 22:39:00,
2013-03-23 15:44:00,40.9,26.9,30.32,East,95,1.0,9.0,57,0.00,,---,0.00,VWS V13.00,2013-03-23 22:44:00,
2013-03-23 15:49:00,41.8,25.5,30.32,ESE,113,3.0,9.0,52,0.00,,---,0.00,VWS V13.00,2013-03-23 22:49:00,
2013-03-23 15:54:00,41.3,25.5,30.32,East,92,2.0,9.0,53,0.00,,---,0.00,VWS V13.00,2013-03-23 22:54:00,
2013-03-23 15:59:00,41.6,24.4,30.32,SSE,148,4.0,5.0,50,0.00,,---,0.00,VWS V13.00,2013-03-23 22:59:00,
2013-03-23 16:04:00,41.9,22.6,30.32,SSE,147,0.0,5.0,46,0.00,,---,0.00,VWS V13.00,2013-03-23 23:04:00,
2013-03-23 16:09:00,41.8,23.1,30.32,SSE,147,1.0,5.0,47,0.00,,---,0.00,VWS V13.00,2013-03-23 23:09:00,
2013-03-23 16:14:00,42.3,24.0,30.32,SSE,147,0.0,5.0,48,0.00,,---,0.00,VWS V13.00,2013-03-23 23:14:00,
2013-03-23 16:19:00,42.7,22.3,30.31,SSE,148,2.0,5.0,44,0.00,,---,0.00,VWS V13.00,2013-03-23 23:19:00,
2013-03-23 16:24:00,42.6,21.7,30.31,SE,126,2.0,5.0,43,0.00,,---,0.00,VWS V13.00,2013-03-23 23:24:00,
2013-03-23 16:29:00,42.0,21.7,30.32,SE,127,0.0,1.0,44,0.00,,---,0.00,VWS V13.00,2013-03-23 23:29:00,
2013-03-23 16:34:00,41.3,21.6,30.32,SE,126,0.0,2.0,45,0.00,,---,0.00,VWS V13.00,2013-03-23 23:34:00,
2013-03-23 16:39:00,41.5,21.8,30.32,South,173,2.0,4.0,45,0.00,,---,0.00,VWS V13.00,2013-03-23 23:39:00,
2013-03-23 16:44:00,42.0,22.2,30.32,South,171,0.0,5.0,45,0.00,,---,0.00,VWS V13.00,2013-03-23 23:44:00,
2013-03-23 16:49:00,42.0,21.7,30.32,SSE,148,3.0,5.0,44,0.00,,---,0.00,VWS V13.00,2013-03-23 23:49:00,
2013-03-23 16:54:00,41.8,22.0,30.32,SSE,148,0.0,5.0,45,0.00,,---,0.00,VWS V13.00,2013-03-23 23:54:00,
2013-03-23 16:59:00,42.1,21.8,30.32,SSE,148,0.0,3.0,44,0.00,,---,0.00,VWS V13.00,2013-03-23 23:59:00,
2013-03-23 17:04:00,42.0,22.2,30.32,ESE,111,2.0,5.0,45,0.00,,---,0.00,VWS V13.00,2013-03-24 00:04:00,
2013-03-23 17:09:00,41.7,21.9,30.32,SE,128,1.0,5.0,45,0.00,,---,0.00,VWS V13.00,2013-03-24 00:09:00,
2013-03-23 17:14:00,41.7,22.5,30.32,SE,128,1.0,5.0,46,0.00,,---,0.00,VWS V13.00,2013-03-24 00:14:00,
2013-03-23 17:19:00,42.2,22.9,30.32,East,101,3.0,6.0,46,0.00,,---,0.00,VWS V13.00,2013-03-24 00:19:00,
2013-03-23 17:24:00,42.4,22.0,30.32,SE,144,5.0,7.0,44,0.00,,---,0.00,VWS V13.00,2013-03-24 00:24:00,
2013-03-23 17:29:00,42.5,22.1,30.31,South,180,6.0,9.0,44,0.00,,---,0.00,VWS V13.00,2013-03-24 00:29:00,
2013-03-23 17:34:00,42.6,22.8,30.31,South,170,3.0,9.0,45,0.00,,---,0.00,VWS V13.00,2013-03-24 00:34:00,
2013-03-23 17:39:00,42.7,23.4,30.32,SSE,163,6.0,12.0,46,0.00,,---,0.00,VWS V13.00,2013-03-24 00:39:00,
2013-03-23 17:44:00,42.5,24.2,30.32,SE,140,2.0,12.0,48,0.00,,---,0.00,VWS V13.00,2013-03-24 00:44:00,
2013-03-23 17:49:00,42.1,24.3,30.32,South,169,3.0,12.0,49,0.00,,---,0.00,VWS V13.00,2013-03-24 00:49:00,
2013-03-23 17:54:00,41.7,24.9,30.32,SSE,150,7.0,12.0,51,0.00,,---,0.00,VWS V13.00,2013-03-24 00:54:00,
2013-03-23 17:59:00,40.9,25.5,30.32,SE,146,3.0,6.0,54,0.00,,---,0.00,VWS V13.00,2013-03-24 00:59:00,
2013-03-23 18:04:00,40.4,25.5,30.32,ESE,115,4.0,6.0,55,0.00,,---,0.00,VWS V13.00,2013-03-24 01:04:00,
2013-03-23 18:09:00,39.8,25.4,30.32,ESE,115,3.0,6.0,56,0.00,,---,0.00,VWS V13.00,2013-03-24 01:09:00,
2013-03-23 18:14:00,39.3,25.8,30.33,East,98,3.0,6.0,58,0.00,,---,0.00,VWS V13.00,2013-03-24 01:14:00,
2013-03-23 18:19:00,38.8,25.3,30.33,ESE,111,2.0,7.0,58,0.00,,---,0.00,VWS V13.00,2013-03-24 01:19:00,
2013-03-23 18:24:00,38.4,25.3,30.33,ESE,103,1.0,7.0,59,0.00,,---,0.00,VWS V13.00,2013-03-24 01:24:00,
2013-03-23 18:29:00,38.1,25.5,30.33,ESE,102,0.0,2.0,60,0.00,,---,0.00,VWS V13.00,2013-03-24 01:29:00,
2013-03-23 18:34:00,37.9,25.3,30.33,ESE,102,0.0,3.0,60,0.00,,---,0.00,VWS V13.00,2013-03-24 01:34:00,
2013-03-23 18:39:00,37.6,25.4,30.33,ESE,102,0.0,3.0,61,0.00,,---,0.00,VWS V13.00,2013-03-24 01:39:00,
2013-03-23 18:44:00,37.4,25.6,30.33,ESE,102,0.0,3.0,62,0.00,,---,0.00,VWS V13.00,2013-03-24 01:44:00,
2013-03-23 18:49:00,37.2,25.4,30.34,ESE,102,0.0,3.0,62,0.00,,---,0.00,VWS V13.00,2013-03-24 01:49:00,
2013-03-23 18:54:00,36.9,25.5,30.33,ESE,102,0.0,3.0,63,0.00,,---,0.00,VWS V13.00,2013-03-24 01:54:00,
2013-03-23 18:59:00,36.7,25.3,30.33,ESE,102,0.0,0.0,63,0.00,,---,0.00,VWS V13.00,2013-03-24 01:59:00,
2013-03-23 19:04:00,36.6,25.2,30.33,ESE,102,0.0,0.0,63,0.00,,---,0.00,VWS V13.00,2013-03-24 02:04:00,
2013-03-23 19:09:00,36.5,24.7,30.33,ESE,102,0.0,0.0,62,0.00,,---,0.00,VWS V13.00,2013-03-24 02:09:00,
2013-03-23 19:14:00,36.4,25.0,30.34,ESE,102,0.0,0.0,63,0.00,,---,0.00,VWS V13.00,2013-03-24 02:14:00,
2013-03-23 19:19:00,36.4,25.0,30.34,ESE,102,0.0,0.0,63,0.00,,---,0.00,VWS V13.00,2013-03-24 02:19:00,
2013-03-23 19:24:00,36.2,24.8,30.33,ESE,102,0.0,0.0,63,0.00,,---,0.00,VWS V13.00,2013-03-24 02:24:00,
2013-03-23 19:29:00,36.0,25.0,30.34,ESE,102,0.0,0.0,64,0.00,,---,0.00,VWS V13.00,2013-03-24 02:29:00,
2013-03-23 19:34:00,35.7,24.7,30.34,ESE,102,0.0,1.0,64,0.00,,---,0.00,VWS V13.00,2013-03-24 02:34:00,
2013-03-23 19:39:00,35.5,24.9,30.34,ESE,102,0.0,1.0,65,0.00,,---,0.00,VWS V13.00,2013-03-24 02:39:00,
2013-03-23 19:44:00,35.2,24.6,30.34,ESE,102,1.0,2.0,65,0.00,,---,0.00,VWS V13.00,2013-03-24 02:44:00,
2013-03-23 19:49:00,34.9,24.7,30.34,ESE,102,0.0,2.0,66,0.00,,---,0.00,VWS V13.00,2013-03-24 02:49:00,
2013-03-23 19:54:00,34.4,24.2,30.34,ESE,102,0.0,2.0,66,0.00,,---,0.00,VWS V13.00,2013-03-24 02:54:00,
2013-03-23 19:59:00,34.3,24.5,30.33,ESE,102,2.0,2.0,67,0.00,,---,0.00,VWS V13.00,2013-03-24 02:59:00,
2013-03-23 20:04:00,33.8,24.4,30.33,SSW,205,2.0,3.0,68,0.00,,---,0.00,VWS V13.00,2013-03-24 03:04:00,
2013-03-23 20:09:00,33.4,24.0,30.33,SW,223,2.0,3.0,68,0.00,,---,0.00,VWS V13.00,2013-03-24 03:09:00,
2013-03-23 20:14:00,32.9,23.9,30.34,West,272,2.0,3.0,69,0.00,,---,0.00,VWS V13.00,2013-03-24 03:14:00,
2013-03-23 20:19:00,32.5,23.8,30.34,West,273,2.0,3.0,70,0.00,,---,0.00,VWS V13.00,2013-03-24 03:19:00,
2013-03-23 20:24:00,32.1,23.8,30.34,West,273,1.0,3.0,71,0.00,,---,0.00,VWS V13.00,2013-03-24 03:24:00,
2013-03-23 20:29:00,31.8,23.5,30.34,West,272,2.0,3.0,71,0.00,,---,0.00,VWS V13.00,2013-03-24 03:29:00,
2013-03-23 20:34:00,31.4,23.4,30.34,West,272,2.0,3.0,72,0.00,,---,0.00,VWS V13.00,2013-03-24 03:34:00,
2013-03-23 20:39:00,31.1,23.1,30.35,West,273,2.0,3.0,72,0.00,,---,0.00,VWS V13.00,2013-03-24 03:39:00,
2013-03-23 20:44:00,30.9,23.3,30.35,West,273,1.0,3.0,73,0.00,,---,0.00,VWS V13.00,2013-03-24 03:44:00,
2013-03-23 20:49:00,30.6,23.3,30.35,West,273,1.0,3.0,74,0.00,,---,0.00,VWS V13.00,2013-03-24 03:49:00,
2013-03-23 20:54:00,30.4,23.1,30.35,West,272,0.0,3.0,74,0.00,,---,0.00,VWS V13.00,2013-03-24 03:54:00,
2013-03-23 20:59:00,30.2,22.9,30.34,West,273,1.0,2.0,74,0.00,,---,0.00,VWS V13.00,2013-03-24 03:59:00,
2013-03-23 21:00:00,30.2,22.9,30.34,West,273,1.0,2.0,74,0.00,,---,0.00,VWS V13.00,2013-03-24 04:00:00,
2013-03-23 21:05:00,29.9,23.0,30.34,West,273,1.0,2.0,75,0.00,,---,0.00,VWS V13.00,2013-03-24 04:05:00,
2013-03-23 21:10:00,29.7,22.8,30.34,West,273,2.0,2.0,75,0.00,,---,0.00,VWS V13.00,2013-03-24 04:10:00,
2013-03-23 21:15:00,29.4,22.5,30.34,West,273,2.0,2.0,75,0.00,,---,0.00,VWS V13.00,2013-03-24 04:15:00,
2013-03-23 21:20:00,29.2,22.6,30.35,West,272,2.0,2.0,76,0.00,,---,0.00,VWS V13.00,2013-03-24 04:20:00,
2013-03-23 21:25:00,28.9,22.3,30.35,West,273,2.0,3.0,76,0.00,,---,0.00,VWS V13.00,2013-03-24 04:25:00,
2013-03-23 21:30:00,28.6,22.3,30.35,West,273,2.0,2.0,77,0.00,,---,0.00,VWS V13.00,2013-03-24 04:30:00,
2013-03-23 21:35:00,28.4,22.1,30.35,West,273,2.0,2.0,77,0.00,,---,0.00,VWS V13.00,2013-03-24 04:35:00,
2013-03-23 21:40:00,28.1,22.1,30.35,West,272,1.0,2.0,78,0.00,,---,0.00,VWS V13.00,2013-03-24 04:40:00,
2013-03-23 21:45:00,28.0,22.0,30.35,West,273,1.0,3.0,78,0.00,,---,0.00,VWS V13.00,2013-03-24 04:45:00,
2013-03-23 21:50:00,27.8,22.1,30.35,West,273,1.0,3.0,79,0.00,,---,0.00,VWS V13.00,2013-03-24 04:50:00,
2013-03-23 21:55:00,27.6,22.0,30.35,West,272,1.0,3.0,79,0.00,,---,0.00,VWS V13.00,2013-03-24 04:55:00,
2013-03-23 22:00:00,27.5,21.9,30.34,West,272,1.0,2.0,79,0.00,,---,0.00,VWS V13.00,2013-03-24 05:00:00,
2013-03-23 22:05:00,27.4,21.8,30.34,West,272,1.0,3.0,79,0.00,,---,0.00,VWS V13.00,2013-03-24 05:05:00,
2013-03-23 22:10:00,27.2,21.6,30.35,West,273,1.0,3.0,79,0.00,,---,0.00,VWS V13.00,2013-03-24 05:10:00,
2013-03-23 22:15:00,27.0,21.7,30.35,West,273,2.0,3.0,80,0.00,,---,0.00,VWS V13.00,2013-03-24 05:15:00,
2013-03-23 22:20:00,26.9,21.6,30.35,West,273,2.0,3.0,80,0.00,,---,0.00,VWS V13.00,2013-03-24 05:20:00,
2013-03-23 22:25:00,26.7,21.4,30.35,West,272,1.0,3.0,80,0.00,,---,0.00,VWS V13.00,2013-03-24 05:25:00,
2013-03-23 22:30:00,26.6,21.6,30.35,West,273,1.0,3.0,81,0.00,,---,0.00,VWS V13.00,2013-03-24 05:30:00,
2013-03-23 22:35:00,26.5,21.5,30.35,West,273,2.0,3.0,81,0.00,,---,0.00,VWS V13.00,2013-03-24 05:35:00,
2013-03-23 22:40:00,26.4,21.4,30.35,West,272,2.0,3.0,81,0.00,,---,0.00,VWS V13.00,2013-03-24 05:40:00,
2013-03-23 22:45:00,26.3,21.6,30.35,West,272,3.0,3.0,82,0.00,,---,0.00,VWS V13.00,2013-03-24 05:45:00,
2013-03-23 22:50:00,26.3,21.6,30.35,West,273,1.0,3.0,82,0.00,,---,0.00,VWS V13.00,2013-03-24 05:50:00,
2013-03-23 22:55:00,26.4,21.7,30.35,West,273,2.0,3.0,82,0.00,,---,0.00,VWS V13.00,2013-03-24 05:55:00,
2013-03-23 23:00:00,26.4,21.7,30.35,West,272,1.0,2.0,82,0.00,,---,0.00,VWS V13.00,2013-03-24 06:00:00,
2013-03-23 23:05:00,26.3,21.6,30.35,West,272,2.0,3.0,82,0.00,,---,0.00,VWS V13.00,2013-03-24 06:05:00,
2013-03-23 23:10:00,26.2,21.5,30.35,West,273,2.0,3.0,82,0.00,,---,0.00,VWS V13.00,2013-03-24 06:10:00,
2013-03-23 23:15:00,26.1,21.4,30.35,West,273,2.0,3.0,82,0.00,,---,0.00,VWS V13.00,2013-03-24 06:15:00,
2013-03-23 23:20:00,26.0,21.3,30.35,West,273,2.0,3.0,82,0.00,,---,0.00,VWS V13.00,2013-03-24 06:20:00,
2013-03-23 23:25:00,25.8,21.1,30.35,West,272,2.0,3.0,82,0.00,,---,0.00,VWS V13.00,2013-03-24 06:25:00,
2013-03-23 23:30:00,25.7,21.0,30.35,West,273,1.0,2.0,82,0.00,,---,0.00,VWS V13.00,2013-03-24 06:30:00,
2013-03-23 23:35:00,25.6,21.2,30.35,West,273,2.0,3.0,83,0.00,,---,0.00,VWS V13.00,2013-03-24 06:35:00,
2013-03-23 23:40:00,25.5,21.1,30.35,West,272,0.0,3.0,83,0.00,,---,0.00,VWS V13.00,2013-03-24 06:40:00,
2013-03-23 23:45:00,25.4,21.0,30.35,West,272,1.0,3.0,83,0.00,,---,0.00,VWS V13.00,2013-03-24 06:45:00,
2013-03-23 23:50:00,25.3,20.9,30.35,West,273,1.0,3.0,83,0.00,,---,0.00,VWS V13.00,2013-03-24 06:50:00,
2013-03-23 23:55:00,25.2,20.8,30.36,West,273,0.0,3.0,83,0.00,,---,0.00,VWS V13.00,2013-03-24 06:55:00,